sat.trackr.live / text

‹ back to catalog

STARLINK-36912

NORAD 67961 · 2026-038A

PAYLOAD ACTIVE UNKNOWN

§ Identity

Operator
Country
US
Launch date
2026-02-25
Launch site
AFWTR
Launch vehicle
Mass (kg)
RCS (m²)

Purposes: comms

External: N2YO · Heavens-Above · Gunter

§ Orbital elements

Epoch: 2026-09-19T14:48:04.901760Z

Period
93.91 min
Inclination
97.2854°
Eccentricity
0.0001022
Mean motion
15.33457005 rev/d
Perigee alt
464.8 km
Apogee alt
466.2 km
Semi-major
6,843.6 km
B*
5.7997e-4
RAAN
270.9023°
Arg perigee
101.3905°
Mean anomaly
258.7453°
Rev number
3,295

§ Raw data

STARLINK-369121 67961U 26038A   26262.61672340  .00018702  00000+0  57997-3 0  99922 67961  97.2854 270.9023 0001022 101.3905 258.7453 15.33457005 32959

JSON: /api/v1/satellites/67961 · /tle

For live sub-satellite position, see the globe view (requires WebGL).

§ Visibility from observer

Set your observer location to see the next 7 days of passes ≥ 10°. The values pass through the URL so the page stays shareable.

No JS? Fill the form by hand. The geolocation button needs JavaScript.